Main page
METAR-TAF:

Airports :

Alpine, Texas, United States

Alpine-Casparis Municipal Airport

latitude: 30-23-03N, longitude: 103-41-00W, elevation: 1376 m

Current weather observation

The report was made 16 minutes ago, at 15:35 UTC
Wind 8 kt from the North
Temperature 21°C
Humidity 23%
Pressure 1014 hPa
Visibility: 16.1 km
Clear sky

METAR: KE38 291535Z AUTO 01008KT 10SM CLR 21/M01 A2993 RMK AO2 T02071009

Time: 10:51 (15:51 UTC)


TAF: missing

METAR-TAF

Weather observations and forecasts of more than 4000 airports (METAR and TAF reports).

The available stations are represented by yellow and red dots on the map.

Hover mouse over dot to see the name of the station.

Then click to see weather observations and forecasts.

To change the map : click on the green buttons with a black cross to zoom in, on the green button with a dash to zoom out, or on the green arrows for adjacent maps.


METAR-TAF: